Stündliche Wetter Holovs'ke

Heute, 21 Juni, Montag

Zeit Temperatur Niederschläge Wind Luftdruck Luftfeuchtigkeit
00:00 +15°C° 0 mm 1 m/S 695 mmHg 97%
01:00 +15°C° 0 mm 1 m/S 695 mmHg 97%
02:00 +15°C° 0 mm 1 m/S 695 mmHg 97%
03:00 +14°C° 0 mm 1 m/S 695 mmHg 97%
04:00 +14°C° 0 mm 1 m/S 695 mmHg 96%
05:00 +14°C° 0 mm 1 m/S 694 mmHg 96%
06:00 +16°C° 0 mm 1 m/S 695 mmHg 91%
07:00 +19°C° 0 mm 1 m/S 695 mmHg 86%
08:00 +20°C° 0 mm 1 m/S 695 mmHg 81%
09:00 +22°C° 0 mm 1 m/S 695 mmHg 73%
10:00 +24°C° 0 mm 2 m/S 696 mmHg 65%
11:00 +25°C° 0 mm 2 m/S 696 mmHg 57%
12:00 +26°C° 0 mm 2 m/S 696 mmHg 57%
13:00 +26°C° 0 mm 2 m/S 695 mmHg 57%
14:00 +26°C° 0 mm 3 m/S 695 mmHg 57%
15:00 +25°C° 0.5 mm 2 m/S 695 mmHg 63%
16:00 +25°C° 0.5 mm 2 m/S 695 mmHg 68%
17:00 +24°C° 0.5 mm 1 m/S 695 mmHg 74%
18:00 +23°C° 0.4 mm 1 m/S 695 mmHg 79%
19:00 +22°C° 0.4 mm 1 m/S 695 mmHg 83%
20:00 +20°C° 0.4 mm 1 m/S 694 mmHg 88%
21:00 +19°C° 0 mm 1 m/S 695 mmHg 90%
22:00 +19°C° 0 mm 1 m/S 695 mmHg 91%
23:00 +18°C° 0 mm 1 m/S 695 mmHg 93%

Morgen, 22 Juni, Dienstag

Zeit Temperatur Niederschläge Wind Luftdruck Luftfeuchtigkeit
00:00 +16°C° 0 mm 1 m/S 695 mmHg 93%
01:00 +16°C° 0 mm 1 m/S 695 mmHg 93%
02:00 +16°C° 0 mm 1 m/S 694 mmHg 93%
03:00 +16°C° 0 mm 1 m/S 695 mmHg 93%
04:00 +16°C° 0 mm 1 m/S 695 mmHg 93%
05:00 +15°C° 0 mm 1 m/S 695 mmHg 93%
06:00 +18°C° 0 mm 1 m/S 695 mmHg 87%
07:00 +20°C° 0 mm 1 m/S 695 mmHg 81%
08:00 +22°C° 0 mm 1 m/S 696 mmHg 75%
09:00 +24°C° 0 mm 1 m/S 696 mmHg 66%
10:00 +26°C° 0 mm 1 m/S 696 mmHg 58%
11:00 +27°C° 0 mm 2 m/S 697 mmHg 49%
12:00 +28°C° 0 mm 2 m/S 697 mmHg 47%
13:00 +29°C° 0 mm 2 m/S 697 mmHg 46%
14:00 +29°C° 0 mm 2 m/S 697 mmHg 45%
15:00 +29°C° 0.2 mm 2 m/S 697 mmHg 49%
16:00 +28°C° 0.2 mm 3 m/S 697 mmHg 54%
17:00 +27°C° 0.2 mm 3 m/S 696 mmHg 58%
18:00 +25°C° 0.4 mm 2 m/S 696 mmHg 67%
19:00 +24°C° 0.4 mm 2 m/S 696 mmHg 76%
20:00 +22°C° 0.4 mm 1 m/S 696 mmHg 85%
21:00 +21°C° 0 mm 1 m/S 696 mmHg 86%
22:00 +20°C° 0 mm 1 m/S 696 mmHg 87%
23:00 +19°C° 0 mm 1 m/S 696 mmHg 88%

übermorgen, 23 Juni, Mittwoch

Zeit Temperatur Niederschläge Wind Luftdruck Luftfeuchtigkeit
00:00 +19°C° 0 mm 1 m/S 696 mmHg 88%
01:00 +19°C° 0 mm 1 m/S 696 mmHg 88%
02:00 +19°C° 0 mm 1 m/S 696 mmHg 88%
03:00 +18°C° 0 mm 1 m/S 696 mmHg 87%
04:00 +18°C° 0 mm 1 m/S 697 mmHg 87%
05:00 +18°C° 0 mm 1 m/S 697 mmHg 87%
06:00 +20°C° 0 mm 1 m/S 697 mmHg 82%
07:00 +20°C° 0 mm 0 m/S 698 mmHg 77%
08:00 +21°C° 0 mm 0 m/S 698 mmHg 72%
09:00 +23°C° 0.2 mm 0 m/S 699 mmHg 68%
10:00 +24°C° 0.2 mm 0 m/S 699 mmHg 63%
11:00 +25°C° 0.2 mm 0 m/S 699 mmHg 59%
12:00 +28°C° 0 mm 1 m/S 699 mmHg 56%
13:00 +29°C° 0 mm 1 m/S 700 mmHg 52%
14:00 +29°C° 0 mm 1 m/S 700 mmHg 49%
15:00 +28°C° 0.5 mm 1 m/S 699 mmHg 58%
16:00 +27°C° 0.5 mm 1 m/S 699 mmHg 67%
17:00 +25°C° 0.5 mm 1 m/S 699 mmHg 76%
18:00 +24°C° 0.8 mm 1 m/S 699 mmHg 78%
19:00 +23°C° 0.8 mm 1 m/S 699 mmHg 81%
20:00 +20°C° 0.8 mm 0 m/S 699 mmHg 84%
21:00 +19°C° 0.3 mm 0 m/S 699 mmHg 86%
22:00 +19°C° 0.3 mm 0 m/S 699 mmHg 87%
23:00 +20°C° 0.3 mm 1 m/S 699 mmHg 89%

24 Juni, Donnerstag

Zeit Temperatur Niederschläge Wind Luftdruck Luftfeuchtigkeit
00:00 +20°C° 0.1 mm 1 m/S 699 mmHg 90%
01:00 +19°C° 0.1 mm 1 m/S 699 mmHg 91%
02:00 +19°C° 0.1 mm 1 m/S 699 mmHg 92%
03:00 +19°C° 0.1 mm 1 m/S 699 mmHg 92%
04:00 +17°C° 0.1 mm 0 m/S 699 mmHg 92%
05:00 +17°C° 0.1 mm 0 m/S 699 mmHg 93%
06:00 +18°C° 0 mm 0 m/S 700 mmHg 88%
07:00 +20°C° 0 mm 0 m/S 700 mmHg 84%
08:00 +22°C° 0 mm 0 m/S 700 mmHg 80%
09:00 +23°C° 0.1 mm 0 m/S 700 mmHg 72%
10:00 +27°C° 0.1 mm 1 m/S 701 mmHg 64%
11:00 +29°C° 0.1 mm 1 m/S 701 mmHg 56%
12:00 +29°C° 0.1 mm 1 m/S 701 mmHg 54%
13:00 +30°C° 0.1 mm 1 m/S 701 mmHg 51%
14:00 +30°C° 0.1 mm 2 m/S 701 mmHg 49%
15:00 +30°C° 0.2 mm 2 m/S 700 mmHg 53%
16:00 +29°C° 0.2 mm 2 m/S 700 mmHg 57%
17:00 +28°C° 0.2 mm 2 m/S 700 mmHg 62%
18:00 +26°C° 1 mm 2 m/S 700 mmHg 70%
19:00 +24°C° 1 mm 2 m/S 700 mmHg 79%
20:00 +21°C° 1 mm 2 m/S 699 mmHg 88%
21:00 +21°C° 0.3 mm 2 m/S 699 mmHg 89%
22:00 +20°C° 0.3 mm 2 m/S 699 mmHg 90%
23:00 +19°C° 0.3 mm 2 m/S 699 mmHg 91%

25 Juni, Freitag

Zeit Temperatur Niederschläge Wind Luftdruck Luftfeuchtigkeit
00:00 +19°C° 0 mm 2 m/S 699 mmHg 91%
01:00 +19°C° 0 mm 2 m/S 698 mmHg 91%
02:00 +18°C° 0 mm 2 m/S 698 mmHg 91%
03:00 +18°C° 0 mm 2 m/S 698 mmHg 91%
04:00 +18°C° 0 mm 2 m/S 698 mmHg 91%
05:00 +18°C° 0 mm 2 m/S 698 mmHg 91%
06:00 +20°C° 0 mm 2 m/S 698 mmHg 87%
07:00 +23°C° 0 mm 2 m/S 698 mmHg 83%
08:00 +24°C° 0 mm 1 m/S 698 mmHg 79%
09:00 +26°C° 0 mm 2 m/S 698 mmHg 69%
10:00 +28°C° 0 mm 2 m/S 699 mmHg 59%
11:00 +30°C° 0 mm 3 m/S 699 mmHg 49%
12:00 +31°C° 0 mm 3 m/S 699 mmHg 47%
13:00 +31°C° 0 mm 3 m/S 699 mmHg 44%
14:00 +33°C° 0 mm 4 m/S 699 mmHg 42%
15:00 +32°C° 0.1 mm 4 m/S 698 mmHg 47%
16:00 +30°C° 0.1 mm 4 m/S 697 mmHg 52%
17:00 +29°C° 0.1 mm 5 m/S 697 mmHg 56%
18:00 +26°C° 0.9 mm 3 m/S 697 mmHg 69%
19:00 +23°C° 0.9 mm 2 m/S 698 mmHg 82%
20:00 +20°C° 0.9 mm 1 m/S 698 mmHg 95%
21:00 +19°C° 0.1 mm 1 m/S 698 mmHg 96%
22:00 +19°C° 0.1 mm 1 m/S 698 mmHg 97%
23:00 +17°C° 0.1 mm 2 m/S 698 mmHg 98%

26 Juni, Samstag

Zeit Temperatur Niederschläge Wind Luftdruck Luftfeuchtigkeit
00:00 +17°C° 0.1 mm 2 m/S 698 mmHg 97%
01:00 +18°C° 0.1 mm 1 m/S 698 mmHg 97%
02:00 +18°C° 0.1 mm 1 m/S 698 mmHg 97%
03:00 +18°C° 0.2 mm 1 m/S 698 mmHg 97%
04:00 +18°C° 0.2 mm 1 m/S 698 mmHg 97%
05:00 +16°C° 0.2 mm 1 m/S 698 mmHg 97%
06:00 +16°C° 0.1 mm 1 m/S 698 mmHg 96%
07:00 +16°C° 0.1 mm 2 m/S 698 mmHg 96%
08:00 +16°C° 0.1 mm 2 m/S 699 mmHg 95%
09:00 +17°C° 0 mm 2 m/S 699 mmHg 91%
10:00 +17°C° 0 mm 2 m/S 699 mmHg 88%
11:00 +18°C° 0 mm 2 m/S 699 mmHg 84%
12:00 +19°C° 0.1 mm 2 m/S 699 mmHg 80%
13:00 +19°C° 0.1 mm 2 m/S 698 mmHg 76%
14:00 +20°C° 0.1 mm 2 m/S 698 mmHg 73%
15:00 +20°C° 0.3 mm 2 m/S 698 mmHg 77%
16:00 +19°C° 0.3 mm 2 m/S 698 mmHg 80%
17:00 +19°C° 0.3 mm 2 m/S 697 mmHg 84%
18:00 +18°C° 2.4 mm 2 m/S 697 mmHg 88%
19:00 +17°C° 2.4 mm 2 m/S 697 mmHg 92%
20:00 +16°C° 2.4 mm 1 m/S 697 mmHg 95%
21:00 +16°C° 1.6 mm 1 m/S 697 mmHg 96%
22:00 +15°C° 1.6 mm 1 m/S 697 mmHg 97%
23:00 +15°C° 1.6 mm 2 m/S 697 mmHg 98%
Mehr zeigen

Wir brauchen deine Erlaubnis

Meteoprog und unser Service Anbieter werden persönliche Daten aufbewahren, so wie Cookies, Geräte Bezeichnung oder ähnliche Technologien von deinem Gerät und Prozess, so wie Persönliche Daten Inhalte und Werbungen, genauso wie social Media und den Verkehr zu analysieren.

  • Aufbewahrung und/oder Zugang zu deiner Geräte Informationen.

    Cookies, Geräte Bezeichnung oder andere Informationen, können aufbewahrt oder Zugang zu deinem Gerät erhalten, für den Grund, der oben angegeben wird.

  • Personalisierte Werbung und Inhalte, Messungen, Einblick in das Publikum und Produkt Entwicklung.

    Werbungen und Inhalte können personalisiert werden, basierend auf ein Profil. Mehr Daten können besser personalisierte Werbungen und Inhalte hinzufügen. Werbung und Inhalte können gezeigt und gemessen werden. Einblicke über das Publikum, welche die Werbung gesehen haben und den Inhalt, können abgeleitet werden. So wie Daten können genutzt werden, um es zu verbessern oder die Benutzer Erfahrung zu verbessern das System und die Software.

Wenn du “Ich stimme zu” klickst, erlaubst du uns, die Cookies zu benutzen die Geräte Bezeichnung, den Web oder ähnliche Technologien zu benutzen. Deine Settings, können in deinem Gerät bei deinem Browser geändert werden.

Für den bestimmten Zweck, berechtigten Interessen beruhen darauf, mehr als auf den Inhalt. Du kannst mehr darüber in unseren Privaten und Cookie Politik lesen.